LogID,LogEntryDate,LogEntryTime,LogEntrySeconds,LogNotes,AFR,STFT,CurrentLTFT,CruiseLTFT,IdleLTFT,IPW,O2Sensor2,Load,AFRMAP,LoadTiming,TimingAdv,KnockSum,RPM,IDC,Baro,MAP,Boost,OmniMAP,OmniBoost,WGDC_Active,MAF,InVVTtarget,ExVVTtarget,InVVTactual,ExVVTactual,TPS,APP,IAT,WGDCCorr,Speed,Battery,ECT,MAT,MAPCalcs,IMAPCalcs,MAFCalcs,ChosenCalc,EthanolPercent,Custom
1,2019-05-19,10:56:59.34307,0.23931,,0,-0.5859375,-0.1953125,-11.1328125,-0.1953125,1.3,0,17.1875,14.7,17.1875,43,0,2632.8125,2.85221354166667,14.21369852,4.824345,-9.38935352,5.8575,-8.35619852,0,1.607856,11.875,0,10.3125,0.15625,15.6862745098039,13.1529411764706,89.6,0,28.589,14.29935,183.2,105.8,18.75,0,17.1875,17.1875,78.4313725490196,
2,2019-05-19,10:56:59.37431,0.2593,,0,-0.5859375,-0.1953125,-11.1328125,-0.1953125,1.3,0,17.1875,14.7,17.1875,42,0,2617.1875,2.83528645833333,14.21369852,4.824345,-9.38935352,5.8575,-8.35619852,0,1.607856,11.875,0,10.3125,0.15625,15.6862745098039,13.1529411764706,89.6,0,28.589,14.29935,183.2,105.8,18.75,0,17.1875,17.1875,78.4313725490196,
3,2019-05-19,10:56:59.40555,0.28925,,0,-0.5859375,-0.1953125,-11.1328125,-0.1953125,1.3,0,17.1875,14.7,17.1875,42,0,2609.375,2.82682291666667,14.28621739,4.824345,-9.46187239,5.8575,-8.42871739,0,1.588248,11.875,0,10.3125,0.15625,15.6862745098039,13.1529411764706,89.6,0,28.589,14.29935,183.2,105.8,18.75,0,15.625,17.1875,78.4313725490196,
4,2019-05-19,10:56:59.43691,0.32445,,0,-0.9765625,-0.1953125,-11.1328125,-0.1953125,1.3,0,17.1875,14.7,17.1875,42,0,2617.1875,2.83528645833333,14.28621739,4.824345,-9.46187239,5.8575,-8.42871739,0,1.588248,11.875,0,10.3125,0.15625,15.6862745098039,13.1529411764706,89.6,0,28.589,14.29935,183.2,105.8,18.75,0,17.1875,17.1875,78.4313725490196,
5,2019-05-19,10:56:59.46804,0.35176,,11.0103,-0.9765625,-0.1953125,-11.1328125,-0.1953125,1.3,0,17.1875,14.7,17.1875,42,0,2617.1875,2.83528645833333,14.21369852,4.7278581,-9.48584042,5.74035,-8.47334852,0,1.607856,11.875,0,10.3125,0.15625,15.6862745098039,13.1529411764706,87.8,0,28.589,14.29935,183.2,105.8,18.75,0,17.1875,17.1875,78.4313725490196,
6,2019-05-19,10:56:59.48366,0.36912,,11.0103,-0.9765625,-0.1953125,-11.1328125,-0.1953125,1.3,0,17.1875,14.7,17.1875,42,0,2617.1875,2.83528645833333,14.21369852,4.7278581,-9.48584042,5.74035,-8.47334852,0,1.607856,11.875,0,10.46875,0.15625,15.6862745098039,13.1529411764706,87.8,0,28.589,14.29935,183.2,105.8,18.75,0,17.1875,17.1875,78.4313725490196,
7,2019-05-19,10:56:59.51490,0.40906,,11.0103,-1.171875,-0.1953125,-11.1328125,-0.1953125,1.3,0,17.1875,14.7,17.1875,43,0,2625,2.84375,14.21369852,4.824345,-9.38935352,5.8575,-8.35619852,0,1.607856,11.875,0,10.46875,0.15625,15.6862745098039,13.1529411764706,87.8,0,28.589,14.29935,183.2,105.8,20.3125,0,15.625,17.1875,78.4313725490196,
8,2019-05-19,10:56:59.54614,0.43454,,11.0103,-1.171875,-0.1953125,-11.1328125,-0.1953125,1.3,0,17.1875,14.7,17.1875,43,0,2632.8125,2.85221354166667,14.21369852,4.824345,-9.38935352,5.8575,-8.35619852,0,1.607856,11.875,0,10.3125,0.15625,16.078431372549,13.6588235294118,87.8,0,28.589,14.29935,183.2,105.8,18.75,0,17.1875,17.1875,78.4313725490196,
9,2019-05-19,10:56:59.57752,0.46642,,11.0103,-1.171875,-0.1953125,-11.1328125,-0.1953125,1.3,0,17.1875,14.7,17.1875,43,0,2625,2.84375,14.28621739,4.824345,-9.46187239,5.8575,-8.42871739,0,1.627464,11.875,0,10.3125,0.15625,16.078431372549,13.6588235294118,87.8,0,28.589,14.22602,183.2,105.8,18.75,0,18.75,17.1875,78.4313725490196,
10,2019-05-19,10:56:59.60863,0.49894,,11.0103,-1.5625,-0.1953125,-11.1328125,-0.1953125,1.3,0,17.1875,14.7,17.1875,42,0,2617.1875,2.83528645833333,14.28621739,4.824345,-9.46187239,5.8575,-8.42871739,0,1.627464,11.875,0,10.46875,0.15625,16.078431372549,13.6588235294118,87.8,0,28.589,14.22602,183.2,105.8,18.75,0,17.1875,17.1875,78.4313725490196,
11,2019-05-19,10:56:59.63987,0.52777,,10.9662,-1.5625,-0.1953125,-11.1328125,-0.1953125,1.3,0,17.1875,14.7,17.1875,42,0,2617.1875,2.83528645833333,14.28621739,4.9208319,-9.36538549,5.97465,-8.31156739,0,1.627464,11.875,0,10.46875,0.15625,16.078431372549,13.6588235294118,89.6,0,28.589,14.22602,183.2,105.8,20.3125,0,17.1875,17.1875,78.4313725490196,
12,2019-05-19,10:56:59.67115,0.55371,,10.9662,-1.5625,-0.1953125,-11.1328125,-0.1953125,1.3,0,17.1875,14.7,17.1875,42,0,2609.375,2.82682291666667,14.28621739,4.9208319,-9.36538549,5.97465,-8.31156739,0,1.627464,11.875,0,10.3125,0,16.078431372549,13.6588235294118,89.6,0,28.589,14.29935,183.2,105.8,20.3125,0,17.1875,17.1875,78.4313725490196,
13,2019-05-19,10:56:59.70250,0.58767,,10.9662,-1.7578125,-0.1953125,-11.1328125,-0.1953125,1.4,0,17.1875,14.7,17.1875,42,0,2617.1875,3.05338541666667,14.28621739,4.9208319,-9.36538549,5.97465,-8.31156739,0,1.627464,11.875,0,10.3125,0,16.078431372549,13.6588235294118,89.6,0,28.589,14.29935,183.2,105.8,20.3125,0,17.1875,17.1875,78.4313725490196,
14,2019-05-19,10:56:59.71798,0.6062,,10.9662,-1.7578125,-0.1953125,-11.1328125,-0.1953125,1.4,0,17.1875,14.7,17.1875,42,0,2617.1875,3.05338541666667,14.28621739,4.9208319,-9.36538549,5.97465,-8.31156739,0,1.627464,11.875,0,10.3125,0.15625,16.078431372549,13.6588235294118,87.8,0,28.589,14.29935,183.2,105.8,20.3125,0,17.1875,17.1875,78.4313725490196,
15,2019-05-19,10:56:59.74922,0.64143,,10.9662,-1.7578125,-0.1953125,-11.1328125,-0.1953125,1.4,0,17.1875,14.7,17.1875,43,0,2625,3.0625,14.21369852,4.9208319,-9.29286662,5.97465,-8.23904852,0,1.627464,11.875,0,10.3125,0.15625,16.078431372549,13.6588235294118,87.8,0,28.589,14.29935,183.2,105.8,20.3125,0,18.75,17.1875,78.4313725490196,
16,2019-05-19,10:56:59.78046,0.67605,,10.9662,-2.1484375,-0.1953125,-11.1328125,-0.1953125,1.4,0,17.1875,14.7,17.1875,42,0,2617.1875,3.05338541666667,14.21369852,4.9208319,-9.29286662,5.97465,-8.23904852,0,1.627464,11.875,0,10.3125,0.15625,16.078431372549,13.6588235294118,87.8,0,28.589,14.29935,183.2,105.8,20.3125,0,18.75,17.1875,78.4313725490196,
17,2019-05-19,10:56:59.81171,0.70153,,11.1426,-2.1484375,-0.1953125,-11.1328125,-0.1953125,1.4,0,17.1875,14.7,17.1875,42,0,2617.1875,3.05338541666667,14.21369852,5.0173188,-9.19637972,6.0918,-8.12189852,0,1.627464,11.875,0,10.3125,0.15625,16.078431372549,13.6588235294118,87.8,0,28.589,14.29935,183.2,105.8,20.3125,0,17.1875,17.1875,78.4313725490196,
18,2019-05-19,10:56:59.84295,0.72972,,11.1426,-2.1484375,-0.1953125,-11.1328125,-0.1953125,1.3,0,17.1875,14.7,17.1875,42,0,2617.1875,2.83528645833333,14.21369852,5.0173188,-9.19637972,6.0918,-8.12189852,0,1.627464,11.875,0,10.46875,0,16.078431372549,13.6588235294118,87.8,0,28.589,14.29935,183.2,105.8,20.3125,0,17.1875,17.1875,78.4313725490196,
19,2019-05-19,10:56:59.87419,0.76472,,11.1426,-2.34375,-0.1953125,-11.1328125,-0.1953125,1.3,0,17.1875,14.7,17.1875,42,0,2617.1875,2.83528645833333,14.28621739,4.9208319,-9.36538549,5.97465,-8.31156739,0,1.627464,11.875,0,10.46875,0,16.078431372549,13.6588235294118,87.8,0,28.589,14.29935,183.2,105.8,20.3125,0,17.1875,17.1875,78.4313725490196,
20,2019-05-19,10:56:59.88990,0.78371,,11.1426,-2.34375,-0.1953125,-11.1328125,-0.1953125,1.3,0,17.1875,14.7,17.1875,42,0,2617.1875,2.83528645833333,14.28621739,4.9208319,-9.36538549,5.97465,-8.31156739,0,1.627464,11.875,0,10.3125,0.15625,16.078431372549,13.6588235294118,87.8,0,28.589,14.29935,183.2,105.8,20.3125,0,17.1875,17.1875,78.4313725490196,
21,2019-05-19,10:56:59.92120,0.80822,,11.1426,-2.34375,-0.1953125,-11.1328125,-0.1953125,1.4,0,17.1875,14.7,17.1875,42,0,2617.1875,3.05338541666667,14.28621739,4.9208319,-9.36538549,5.97465,-8.31156739,0,1.627464,11.875,0,10.3125,0.15625,16.078431372549,13.6588235294118,87.8,0,28.589,14.29935,183.2,105.8,20.3125,0,18.75,17.1875,78.4313725490196,
22,2019-05-19,10:56:59.95230,0.84557,,11.4072,-2.5390625,-0.1953125,-11.1328125,-0.1953125,1.3,0,17.1875,14.7,17.1875,42,0,2617.1875,2.83528645833333,14.28621739,4.9208319,-9.36538549,5.97465,-8.31156739,0,1.627464,11.875,0,10.46875,0,16.078431372549,13.6588235294118,87.8,0,28.589,14.29935,183.2,105.8,20.3125,0,20.3125,17.1875,78.4313725490196,
23,2019-05-19,10:56:59.99928,0.88076,,11.4072,-2.5390625,-0.1953125,-11.1328125,-0.1953125,1.4,0,17.1875,14.7,18.75,42,0,2617.1875,3.05338541666667,14.28621739,5.1138057,-9.17241169,6.20895,-8.07726739,0,1.705896,11.875,0,10.46875,0,16.8627450980392,16.1882352941176,89.6,0,28.589,14.29935,183.2,105.8,20.3125,0,23.4375,18.75,78.4313725490196,
24,2019-05-19,10:57:00.04603,0.93336,,11.4072,-2.5390625,-0.1953125,-11.1328125,-0.1953125,1.4,0,20.3125,14.7,20.3125,42,0,2609.375,3.04427083333333,14.28621739,5.1138057,-9.17241169,6.20895,-8.07726739,0,1.705896,12.5,-1.25,10.46875,0.15625,16.8627450980392,16.1882352941176,89.6,0,28.589,14.22602,183.2,105.8,23.4375,0,21.875,20.3125,78.4313725490196,
25,2019-05-19,10:57:00.07727,0.97367,,11.4072,-3.125,-0.1953125,-11.1328125,-0.1953125,1.4,0,20.3125,14.7,20.3125,43,0,2625,3.0625,14.21369852,5.4997533,-8.71394522,6.67755,-7.53614852,0,1.745112,12.5,-1.25,10.46875,0.15625,16.8627450980392,16.1882352941176,89.6,0,28.589,14.22602,183.2,105.8,25,0,25,21.875,78.4313725490196,
26,2019-05-19,10:57:00.12413,1.00928,,11.3484,-3.125,-0.1953125,-11.1328125,-0.1953125,1.5,0,21.875,14.7,21.875,42,0,2625,3.28125,14.21369852,5.4997533,-8.71394522,6.67755,-7.53614852,0,1.745112,13.125,-3.75,10.3125,0.15625,18.4313725490196,18.2117647058824,89.6,0,28.589,14.22602,183.2,105.8,26.5625,0,25,23.4375,78.4313725490196,
27,2019-05-19,10:57:00.17101,1.05301,,11.3484,-3.125,-0.1953125,-11.1328125,-0.1953125,1.5,0,23.4375,14.7,23.4375,42,0,2632.8125,3.291015625,14.28621739,6.0786747,-8.20754269,7.38045,-6.90576739,0,1.823544,13.125,-3.75,10.3125,0.15625,18.4313725490196,18.2117647058824,89.6,0,28.589,14.22602,183.2,105.8,29.6875,0,31.25,25,78.4313725490196,
28,2019-05-19,10:57:00.20224,1.09525,,11.3484,-3.3203125,-11.1328125,-11.1328125,-0.1953125,1.6,0,26.5625,14.7,26.5625,42,0,2648.4375,3.53125,14.28621739,6.0786747,-8.20754269,7.38045,-6.90576739,0,1.823544,14.375,-8.125,10.46875,0,18.4313725490196,18.2117647058824,89.6,0,28.589,14.22602,183.2,105.8,32.8125,0,35.9375,28.125,78.4313725490196,
29,2019-05-19,10:57:00.24911,1.13689,,11.3484,-3.3203125,-11.1328125,-11.1328125,-0.1953125,1.6,0,28.125,14.7,29.6875,41,0,2640.625,3.52083333333333,14.28621739,7.8154389,-6.47077849,9.48915,-4.79706739,0,2.235312,14.375,-8.125,10.46875,0,33.3333333333333,62.2235294117647,87.8,0,28.589,14.22602,183.2,105.8,39.0625,0,79.6875,39.0625,78.4313725490196,
30,2019-05-19,10:57:00.29607,1.1777,,11.2749,-3.3203125,-11.1328125,-11.1328125,-0.1953125,2.1,0,39.0625,14.7,42.1875,38,0,2609.375,4.56640625,14.28621739,7.8154389,-6.47077849,9.48915,-4.79706739,0,2.235312,21.25,-10,10.625,-1.71875,33.3333333333333,62.2235294117647,87.8,0,28.589,14.29935,183.2,105.8,57.8125,0,150,57.8125,78.4313725490196,
31,2019-05-19,10:57:00.34283,1.22641,,11.2749,0,-11.1328125,-11.1328125,-0.1953125,3.3,0,65.625,14.7,67.1875,33,0,2656.25,7.3046875,14.28621739,14.2800612,-0.00615618999999867,17.3382,3.05198261,24.5,1.9608,21.25,-10,10.625,-1.71875,33.3333333333333,62.2235294117647,87.8,0,28.589,14.29935,183.2,105.8,87.5,0,75,67.1875,78.4313725490196,
32,2019-05-19,10:57:00.37409,1.25739,,11.2749,0,-11.1328125,-11.1328125,-0.1953125,3,0,67.1875,14.7,67.1875,32,0,2726.5625,6.81640625,14.28621739,14.2800612,-0.00615618999999867,17.3382,3.05198261,24.5,1.9608,25,-0.625,16.09375,-3.90625,86.2745098039216,100.670588235294,87.8,0,28.589,14.29935,183.2,105.8,87.5,0,79.6875,71.875,78.4313725490196,
33,2019-05-19,10:57:00.40532,1.29726,,11.2749,0,-11.1328125,-11.1328125,-0.1953125,3.1,0,71.875,14.7,71.875,31,0,2695.3125,6.962890625,14.28621739,14.3765481,0.0903307100000017,17.45535,3.16913261,24.5,2.627472,25,-0.625,16.09375,-3.90625,86.2745098039216,100.670588235294,87.8,0,28.589,14.22602,183.2,105.8,89.0625,0,73.4375,73.4375,78.4313725490196,
34,2019-05-19,10:57:00.45218,1.33486,,11.4807,0,-11.1328125,-11.1328125,-0.1953125,3,0,73.4375,14.7,73.4375,28,0,2609.375,6.5234375,14.28621739,14.3765481,0.0903307100000017,17.45535,3.16913261,24.5,2.627472,22.5,0,20,-0.3125,86.2745098039216,100.670588235294,87.8,0,28.589,14.22602,183.2,105.8,89.0625,0,75,73.4375,78.4313725490196,
35,2019-05-19,10:57:00.48342,1.36731,,11.4807,0,-11.1328125,-11.1328125,-0.1953125,3,0,73.4375,14.7,73.4375,29,0,2632.8125,6.58203125,14.28621739,14.473035,0.18681761,17.5725,3.28628261,24.5,2.568648,22.5,0,20,-0.3125,87.0588235294118,101.176470588235,87.8,0,28.589,14.22602,183.2,105.8,89.0625,0,79.6875,75,78.4313725490196,
36,2019-05-19,10:57:00.51468,1.4025,,11.4807,0,-11.1328125,-11.1328125,-0.1953125,3.1,0,75,14.7,75,28,0,2718.75,7.0234375,14.28621739,14.473035,0.18681761,17.5725,3.28628261,24.5,2.568648,22.5,0,19.6875,0,87.0588235294118,101.176470588235,87.8,0,28.589,14.22602,183.2,105.8,89.0625,0,79.6875,75,78.4313725490196,
37,2019-05-19,10:57:00.54591,1.43463,,11.4807,0,-11.1328125,-11.1328125,-0.1953125,3.1,0,75,14.7,75,28,0,2734.375,7.06380208333333,14.21369852,14.5695219,0.35582338,17.68965,3.47595148,24.5,1.843152,22.5,0,19.6875,0,87.0588235294118,101.176470588235,87.8,0,28.589,14.22602,183.2,105.8,90.625,0,78.125,76.5625,78.4313725490196,
38,2019-05-19,10:57:00.57715,1.46451,,11.4807,0,-11.1328125,-11.1328125,-0.1953125,3.1,0,76.5625,14.7,76.5625,28,0,2718.75,7.0234375,14.21369852,14.5695219,0.35582338,17.68965,3.47595148,24.5,1.843152,21.25,0,19.53125,0,87.4509803921569,101.176470588235,87.8,0,28.589,14.22602,183.2,105.8,89.0625,0,75,76.5625,78.4313725490196,
39,2019-05-19,10:57:00.60840,1.50252,,12.3039,0,-11.1328125,-11.1328125,-0.1953125,3,0,76.5625,14.7,76.5625,28,0,2671.875,6.6796875,14.28621739,14.5695219,0.283304510000001,17.68965,3.40343261,24.5,2.35296,21.25,0,19.53125,0,87.4509803921569,101.176470588235,87.8,0,28.589,14.22602,183.2,105.8,90.625,0,81.25,76.5625,78.4313725490196,
40,2019-05-19,10:57:00.63965,1.52441,,12.3039,0,-11.1328125,-11.1328125,-0.1953125,3,0,76.5625,14.7,76.5625,28,0,2703.125,6.7578125,14.28621739,14.5695219,0.283304510000001,17.68965,3.40343261,24.5,2.35296,21.875,0,18.75,0,87.4509803921569,101.176470588235,87.8,0,28.589,14.22602,183.2,105.8,90.625,0,78.125,76.5625,78.4313725490196,
41,2019-05-19,10:57:00.67088,1.55691,,12.3039,0,-11.1328125,-11.1328125,-0.1953125,3,0,76.5625,14.7,76.5625,28,0,2726.5625,6.81640625,14.21369852,14.7624957,0.548797180000001,17.92395,3.71025148,24.5,2.15688,21.875,0,18.75,0,87.4509803921569,101.682352941176,87.8,0,28.589,14.22602,183.2,105.8,92.1875,0,71.875,76.5625,78.4313725490196,
42,2019-05-19,10:57:00.68650,1.57934,,12.3039,0,-11.1328125,-11.1328125,-0.1953125,3,0,76.5625,14.7,76.5625,28,0,2757.8125,6.89453125,14.21369852,14.7624957,0.548797180000001,17.92395,3.71025148,24.5,2.15688,21.875,-0.625,18.4375,-0.15625,87.4509803921569,101.682352941176,87.8,0,28.589,14.29935,183.2,105.8,92.1875,0,79.6875,76.5625,78.4313725490196,
43,2019-05-19,10:57:00.71775,1.61242,,12.3039,0,-11.1328125,-11.1328125,-0.1953125,3,0,76.5625,14.7,76.5625,27,0,2765.625,6.9140625,14.21369852,14.6660088,0.452310280000001,17.8068,3.59310148,24.5,2.431392,21.875,-0.625,18.4375,-0.15625,87.4509803921569,101.682352941176,87.8,0,28.589,14.29935,183.2,105.8,92.1875,0,84.375,78.125,78.4313725490196,
44,2019-05-19,10:57:00.74899,1.64429,,12.3039,0,-11.1328125,-11.1328125,-0.1953125,3.1,0,78.125,14.7,78.125,27,0,2734.375,7.06380208333333,14.21369852,14.6660088,0.452310280000001,17.8068,3.59310148,24.5,2.431392,20,0,18.4375,-0.15625,87.4509803921569,101.682352941176,87.8,0,28.589,14.29935,183.2,105.8,92.1875,0,81.25,78.125,78.4313725490196,
45,2019-05-19,10:57:00.79585,1.68565,,14.2737,0,-11.1328125,-11.1328125,-0.1953125,3.1,0,79.6875,14.7,79.6875,27,0,2726.5625,7.04361979166667,14.28621739,14.8589826,0.57276521,18.0411,3.75488261,24.5,2.588256,20,0,18.4375,-0.15625,87.4509803921569,101.682352941176,87.8,0,28.589,14.37268,183.2,105.8,92.1875,0,73.4375,78.125,78.4313725490196,
46,2019-05-19,10:57:00.81147,1.70783,,14.2737,0,-11.1328125,-11.1328125,-0.1953125,3.1,0,79.6875,14.7,79.6875,27,0,2765.625,7.14453125,14.28621739,14.8589826,0.57276521,18.0411,3.75488261,24.5,2.588256,21.25,-0.625,17.8125,-0.15625,87.4509803921569,101.682352941176,87.8,0,28.589,14.37268,183.2,105.8,92.1875,0,76.5625,78.125,78.4313725490196,
47,2019-05-19,10:57:00.84271,1.73661,,14.2737,0,-11.1328125,-11.1328125,-0.1953125,3.1,0,79.6875,14.7,79.6875,27,0,2789.0625,7.205078125,14.28621739,14.8589826,0.57276521,18.0411,3.75488261,24.5,2.019624,21.25,-0.625,17.8125,-0.15625,87.4509803921569,101.682352941176,87.8,0,28.589,14.37268,183.2,105.8,93.75,0,81.25,79.6875,78.4313725490196,
48,2019-05-19,10:57:00.87399,1.76408,,14.2737,0,-11.1328125,-11.1328125,-0.1953125,3.1,0,79.6875,14.7,79.6875,27,0,2820.3125,7.28580729166667,14.28621739,14.8589826,0.57276521,18.0411,3.75488261,24.5,2.019624,20,-1.25,17.5,-0.15625,87.4509803921569,101.682352941176,87.8,0,31.075,14.29935,183.2,105.8,93.75,0,81.25,79.6875,78.4313725490196,
49,2019-05-19,10:57:00.90520,1.79788,,14.2737,0,-11.1328125,-11.1328125,-0.1953125,3.1,0,79.6875,14.7,79.6875,26,0,2796.875,7.22526041666667,14.28621739,15.0519564,0.765739010000001,18.2754,3.98918261,24.5,2.176488,20,-1.25,17.5,-0.15625,87.4509803921569,101.682352941176,87.8,0,31.075,14.29935,183.2,105.8,93.75,0,84.375,81.25,78.4313725490196,
50,2019-05-19,10:57:00.95206,1.83421,,14.553,0,-11.1328125,-11.1328125,-0.1953125,3.1,0,81.25,14.7,81.25,26,0,2773.4375,7.16471354166667,14.28621739,15.0519564,0.765739010000001,18.2754,3.98918261,24.5,2.176488,20,-0.625,17.34375,0,87.0588235294118,101.682352941176,87.8,0,31.075,14.29935,183.2,105.8,93.75,0,87.5,81.25,78.4313725490196,
51,2019-05-19,10:57:00.98331,1.86907,,14.553,0,-11.1328125,-11.1328125,-0.1953125,3.2,0,81.25,14.5860465116279,81.25,25,0,2789.0625,7.4375,14.28621739,15.0519564,0.765739010000001,18.2754,3.98918261,24.5,2.392176,20,-0.625,17.34375,0,87.0588235294118,101.682352941176,87.8,0,31.075,14.29935,183.2,105.8,93.75,0,82.8125,81.25,78.4313725490196,
52,2019-05-19,10:57:01.01455,1.90303,,14.553,0,-11.1328125,-11.1328125,-0.1953125,3.2,0,82.8125,14.5860465116279,81.25,26,0,2835.9375,7.5625,14.28621739,15.0519564,0.765739010000001,18.2754,3.98918261,24.5,2.392176,20.625,-1.875,17.03125,-0.15625,87.0588235294118,101.682352941176,87.8,0,31.075,14.29935,183.2,105.8,95.3125,0,84.375,82.8125,78.4313725490196,
53,2019-05-19,10:57:01.06141,1.94383,,14.553,0,-11.1328125,-11.1328125,-0.1953125,3.2,0,81.25,14.5860465116279,82.8125,26,0,2859.375,7.625,14.21369852,15.1484433,0.934744780000001,18.39255,4.17885148,24.5,1.941192,20.625,-1.875,17.03125,-0.15625,87.0588235294118,101.176470588235,87.8,0,31.075,14.29935,183.2,105.8,95.3125,0,90.625,82.8125,78.4313725490196,
54,2019-05-19,10:57:01.07704,1.96739,,14.553,0,-11.1328125,-11.1328125,-0.1953125,3.2,0,81.25,14.5860465116279,82.8125,26,0,2843.75,7.58333333333333,14.21369852,15.1484433,0.934744780000001,18.39255,4.17885148,24.5,1.941192,20,-1.25,17.03125,0,87.0588235294118,101.176470588235,87.8,0,31.075,14.15269,183.2,105.8,95.3125,0,87.5,82.8125,78.4313725490196,
55,2019-05-19,10:57:01.12390,2.01238,,14.7294,0,-11.1328125,-11.1328125,-0.1953125,2.9,0,82.8125,14.5860465116279,82.8125,26,0,2820.3125,6.81575520833333,14.28621739,15.3414171,1.05519971,18.62685,4.34063261,24.5,2.764728,20,-1.25,17.03125,0,87.0588235294118,101.176470588235,87.8,0,31.075,14.15269,183.2,105.8,95.3125,0,79.6875,82.8125,78.4313725490196,
56,2019-05-19,10:57:01.15514,2.04166,,14.7294,0,-11.1328125,-11.1328125,-0.1953125,3.1,0,82.8125,14.5860465116279,82.8125,26,0,2843.75,7.34635416666667,14.28621739,15.3414171,1.05519971,18.62685,4.34063261,24.5,2.764728,21.25,-2.5,17.03125,-0.15625,87.0588235294118,101.176470588235,87.8,0,31.075,14.15269,183.2,105.8,96.875,0,89.0625,82.8125,78.4313725490196,
57,2019-05-19,10:57:01.18639,2.07606,,14.7294,0,-11.1328125,-11.1328125,-0.1953125,3.2,0,82.8125,14.5860465116279,82.8125,26,0,2882.8125,7.6875,14.28621739,15.2449302,0.958712810000002,18.5097,4.22348261,24.5,1.901976,21.25,-2.5,17.03125,-0.15625,87.0588235294118,101.176470588235,87.8,0,31.075,14.29935,183.2,105.8,96.875,0,87.5,82.8125,78.4313725490196,
58,2019-05-19,10:57:01.21763,2.10499,,14.7294,0,-11.1328125,-11.1328125,-0.1953125,3.1,0,82.8125,14.5860465116279,82.8125,26,0,2898.4375,7.48763020833333,14.28621739,15.2449302,0.958712810000002,18.5097,4.22348261,24.5,1.901976,21.25,-3.125,17.34375,0,87.0588235294118,101.176470588235,87.8,0,31.075,14.29935,183.2,105.8,96.875,0,79.6875,81.25,78.4313725490196,
59,2019-05-19,10:57:01.24888,2.13739,,14.7294,0,-11.1328125,-11.1328125,-0.1953125,3.1,0,82.8125,14.5860465116279,82.8125,26,0,2890.625,7.46744791666667,14.28621739,15.437904,1.15168661,18.744,4.45778261,24.5,1.941192,21.25,-3.125,17.34375,0,87.0588235294118,101.176470588235,87.8,0,31.075,14.29935,183.2,105.8,96.875,0,87.5,82.8125,78.4313725490196,
60,2019-05-19,10:57:01.28011,2.16344,,14.7735,0,-11.1328125,-11.1328125,-0.1953125,3.1,0,82.8125,14.5860465116279,82.8125,26,0,2867.1875,7.40690104166667,14.28621739,15.437904,1.15168661,18.744,4.45778261,24.5,1.941192,21.25,-2.5,17.65625,-0.15625,87.0588235294118,101.176470588235,87.8,0,31.075,14.37268,183.2,105.8,96.875,0,85.9375,82.8125,78.4313725490196,
61,2019-05-19,10:57:01.31136,2.19332,,14.7735,0,-11.1328125,-11.1328125,-0.1953125,3.1,0,82.8125,14.5860465116279,82.8125,26,0,2875,7.42708333333333,14.28621739,15.5343909,1.24817351,18.86115,4.57493261,24.5,2.705904,21.25,-2.5,17.65625,-0.15625,87.0588235294118,101.176470588235,87.8,0,31.075,14.37268,183.2,105.8,98.4375,0,82.8125,82.8125,78.4313725490196,
62,2019-05-19,10:57:01.32699,2.21704,,14.7735,0,-11.1328125,-11.1328125,-0.1953125,3.1,0,82.8125,14.5860465116279,82.8125,26,0,2914.0625,7.52799479166667,14.28621739,15.5343909,1.24817351,18.86115,4.57493261,24.5,2.705904,21.875,-3.75,17.96875,-0.46875,87.0588235294118,101.176470588235,87.8,0,31.075,14.37268,183.2,105.8,98.4375,0,84.375,84.375,78.4313725490196,
63,2019-05-19,10:57:01.37385,2.2583,,14.7735,0,-11.1328125,-11.1328125,-0.1953125,3.2,0,84.375,14.5860465116279,84.375,26,0,2937.5,7.83333333333333,14.28621739,15.6308778,1.34466041,18.9783,4.69208261,24.5,2.74512,21.875,-3.75,17.96875,-0.46875,87.0588235294118,101.176470588235,87.8,0,31.075,14.22602,183.2,105.8,98.4375,0,85.9375,84.375,78.4313725490196,
64,2019-05-19,10:57:01.38946,2.28203,,14.7735,0,-11.1328125,-11.1328125,-0.1953125,3.2,0,84.375,14.5860465116279,84.375,26,0,2953.125,7.875,14.28621739,15.6308778,1.34466041,18.9783,4.69208261,24.5,2.74512,21.875,-3.75,18.28125,-1.5625,87.0588235294118,101.176470588235,87.8,0,31.075,14.22602,183.2,105.8,98.4375,0,87.5,85.9375,78.4313725490196,
65,2019-05-19,10:57:01.43633,2.32144,,15.1116,0,-11.1328125,-11.1328125,-0.1953125,3.2,0,85.9375,14.5860465116279,85.9375,26,0,2945.3125,7.85416666666667,14.28621739,15.7273647,1.44114731,19.09545,4.80923261,24.5,2.627472,21.875,-3.75,18.28125,-1.5625,87.0588235294118,101.176470588235,87.8,0,31.075,14.22602,183.2,105.8,98.4375,0,85.9375,85.9375,78.4313725490196,
66,2019-05-19,10:57:01.45195,2.34683,,15.1116,0,-11.1328125,-11.1328125,-0.1953125,3.2,0,85.9375,14.5860465116279,85.9375,25,0,2914.0625,7.77083333333333,14.28621739,15.7273647,1.44114731,19.09545,4.80923261,24.5,2.627472,21.25,-3.75,19.0625,-2.1875,87.0588235294118,101.176470588235,87.8,0,31.075,14.29935,183.2,105.8,100,0,85.9375,85.9375,78.4313725490196,
67,2019-05-19,10:57:01.48319,2.37566,,15.1116,0,-11.1328125,-11.1328125,-0.1953125,3.2,0,85.9375,14.5860465116279,85.9375,26,0,2937.5,7.83333333333333,14.28621739,15.7273647,1.44114731,19.09545,4.80923261,24.5,2.333352,21.25,-3.75,19.0625,-2.1875,87.0588235294118,101.176470588235,87.8,0,31.075,14.29935,183.2,105.8,98.4375,0,90.625,87.5,78.4313725490196,
68,2019-05-19,10:57:01.53007,2.41206,,15.1116,0,-11.1328125,-11.1328125,-0.1953125,3.2,0,87.5,14.4738461538462,87.5,25,0,2976.5625,7.9375,14.28621739,15.7273647,1.44114731,19.09545,4.80923261,24.5,2.333352,21.875,-5,19.375,-2.65625,87.0588235294118,101.176470588235,87.8,0,31.075,14.29935,183.2,105.8,100,0,89.0625,87.5,78.4313725490196,